Time,TemperatureF,DewpointF,PressureIn,WindDirection,WindDirectionDegrees,WindSpeedMPH,WindSpeedGustMPH,Humidity,HourlyPrecipIn,Conditions,Clouds,dailyrainin,SoftwareType,DateUTC
2013-06-21 00:03:00,78.1,66.7,29.96,South,180,6.3,-999.0,68,-99.99,,,0.00,Acu-Link.com,2013-06-21 05:03:00,
2013-06-21 00:18:00,77.7,66.7,29.95,SSE,157,6.3,-999.0,69,-99.99,,,0.00,Acu-Link.com,2013-06-21 05:18:00,
2013-06-21 00:33:00,77.5,66.5,29.94,ENE,67,3.2,-999.0,69,-99.99,,,0.00,Acu-Link.com,2013-06-21 05:33:00,
2013-06-21 00:49:00,77.2,66.6,29.95,SE,135,2.7,-999.0,70,-99.99,,,0.00,Acu-Link.com,2013-06-21 05:49:00,
2013-06-21 01:04:00,77.2,66.6,29.94,South,180,4.7,-999.0,70,-99.99,,,0.00,Acu-Link.com,2013-06-21 06:04:00,
2013-06-21 01:19:00,77.0,66.4,29.94,SSW,202,3.2,-999.0,70,-99.99,,,0.00,Acu-Link.com,2013-06-21 06:19:00,
2013-06-21 01:34:00,76.8,66.3,29.93,East,90,5.3,-999.0,70,-99.99,,,0.00,Acu-Link.com,2013-06-21 06:34:00,
2013-06-21 01:49:00,77.0,66.9,29.93,SE,135,6.8,-999.0,71,-99.99,,,0.00,Acu-Link.com,2013-06-21 06:49:00,
2013-06-21 02:14:00,77.4,66.8,29.93,ESE,112,8.3,-999.0,70,-99.99,,,0.00,Acu-Link.com,2013-06-21 07:14:00,
2013-06-21 02:30:00,77.2,67.1,29.90,ESE,112,2.2,-999.0,71,-99.99,,,0.00,Acu-Link.com,2013-06-21 07:30:00,
2013-06-21 02:45:00,77.2,67.1,29.89,South,180,3.7,-999.0,71,-99.99,,,0.00,Acu-Link.com,2013-06-21 07:45:00,
2013-06-21 03:00:00,77.0,66.9,29.88,ESE,112,15.5,-999.0,71,-99.99,,,0.00,Acu-Link.com,2013-06-21 08:00:00,
2013-06-21 03:15:00,76.8,67.1,29.88,SE,135,3.2,-999.0,72,-99.99,,,0.00,Acu-Link.com,2013-06-21 08:15:00,
2013-06-21 03:30:00,76.6,66.9,29.88,WSW,247,5.3,-999.0,72,-99.99,,,0.00,Acu-Link.com,2013-06-21 08:30:00,
2013-06-21 03:46:00,76.3,67.4,29.89,ESE,112,4.7,-999.0,74,-99.99,,,0.00,Acu-Link.com,2013-06-21 08:46:00,
2013-06-21 04:01:00,76.3,67.4,29.89,ESE,112,2.2,-999.0,74,-99.99,,,0.00,Acu-Link.com,2013-06-21 09:01:00,
2013-06-21 04:16:00,76.5,67.6,29.91,SW,225,2.7,-999.0,74,-99.99,,,0.00,Acu-Link.com,2013-06-21 09:16:00,
2013-06-21 04:31:00,76.5,68.0,29.90,SSE,157,6.8,-999.0,75,-99.99,,,0.00,Acu-Link.com,2013-06-21 09:31:00,
2013-06-21 04:46:00,76.3,68.2,29.91,East,90,4.7,-999.0,76,-99.99,,,0.00,Acu-Link.com,2013-06-21 09:46:00,
2013-06-21 05:01:00,76.1,68.0,29.92,ESE,112,2.7,-999.0,76,-99.99,,,0.00,Acu-Link.com,2013-06-21 10:01:00,
2013-06-21 05:17:00,76.1,68.4,29.91,ESE,112,3.2,-999.0,77,-99.99,,,0.00,Acu-Link.com,2013-06-21 10:17:00,
2013-06-21 05:32:00,76.1,68.7,29.91,ESE,112,1.7,-999.0,78,-99.99,,,0.00,Acu-Link.com,2013-06-21 10:32:00,
2013-06-21 05:47:00,76.3,68.9,29.91,SW,225,3.7,-999.0,78,-99.99,,,0.00,Acu-Link.com,2013-06-21 10:47:00,
2013-06-21 06:02:00,76.1,68.7,29.90,East,90,3.2,-999.0,78,-99.99,,,0.00,Acu-Link.com,2013-06-21 11:02:00,
2013-06-21 06:17:00,76.1,68.7,29.91,ESE,112,3.7,-999.0,78,-99.99,,,0.00,Acu-Link.com,2013-06-21 11:17:00,
2013-06-21 06:33:00,76.1,69.1,29.91,ESE,112,1.7,-999.0,79,-99.99,,,0.00,Acu-Link.com,2013-06-21 11:33:00,
2013-06-21 06:48:00,76.3,69.3,29.90,SE,135,3.7,-999.0,79,-99.99,,,0.00,Acu-Link.com,2013-06-21 11:48:00,
2013-06-21 07:03:00,76.6,69.6,29.90,East,90,2.7,-999.0,79,-99.99,,,0.00,Acu-Link.com,2013-06-21 12:03:00,
2013-06-21 07:18:00,77.0,70.0,29.90,South,180,3.7,-999.0,79,-99.99,,,0.00,Acu-Link.com,2013-06-21 12:18:00,
2013-06-21 07:34:00,77.2,69.8,29.90,SE,135,7.3,-999.0,78,-99.99,,,0.00,Acu-Link.com,2013-06-21 12:34:00,
2013-06-21 07:49:00,77.5,70.1,29.89,SE,135,3.7,-999.0,78,-99.99,,,0.00,Acu-Link.com,2013-06-21 12:49:00,
2013-06-21 08:04:00,77.9,70.5,29.89,West,270,4.2,-999.0,78,-99.99,,,0.00,Acu-Link.com,2013-06-21 13:04:00,
2013-06-21 08:19:00,78.4,70.6,29.89,SSW,202,5.8,-999.0,77,-99.99,,,0.00,Acu-Link.com,2013-06-21 13:19:00,
2013-06-21 08:34:00,79.2,71.0,29.91,East,90,5.8,-999.0,76,-99.99,,,0.00,Acu-Link.com,2013-06-21 13:34:00,
2013-06-21 08:50:00,79.9,71.2,29.93,West,270,3.2,-999.0,75,-99.99,,,0.00,Acu-Link.com,2013-06-21 13:50:00,
2013-06-21 09:05:00,80.4,71.3,29.96,SE,135,3.2,-999.0,74,-99.99,,,0.00,Acu-Link.com,2013-06-21 14:05:00,
2013-06-21 09:20:00,77.4,68.0,30.00,WSW,247,1.1,-999.0,73,-99.99,,,0.00,Acu-Link.com,2013-06-21 14:20:00,
2013-06-21 09:35:00,78.1,69.1,30.00,WNW,292,3.7,-999.0,74,-99.99,,,0.00,Acu-Link.com,2013-06-21 14:35:00,
2013-06-21 09:50:00,76.5,66.4,30.01,WNW,292,2.2,-999.0,71,-99.99,,,0.00,Acu-Link.com,2013-06-21 14:50:00,
2013-06-21 10:06:00,74.7,64.2,30.01,SSE,157,2.7,-999.0,70,-99.99,,,0.00,Acu-Link.com,2013-06-21 15:06:00,
2013-06-21 10:21:00,73.6,63.6,30.01,SE,135,1.7,-999.0,71,-99.99,,,0.00,Acu-Link.com,2013-06-21 15:21:00,
2013-06-21 10:36:00,73.6,64.0,30.00,SE,135,3.7,-999.0,72,-99.99,,,0.00,Acu-Link.com,2013-06-21 15:36:00,
2013-06-21 10:51:00,73.0,65.0,29.99,SSE,157,2.7,-999.0,76,-99.99,,,0.00,Acu-Link.com,2013-06-21 15:51:00,
2013-06-21 11:07:00,73.6,65.2,29.99,East,90,5.8,-999.0,75,-99.99,,,0.00,Acu-Link.com,2013-06-21 16:07:00,
2013-06-21 11:22:00,73.2,64.0,29.99,South,180,3.7,-999.0,73,-99.99,,,0.00,Acu-Link.com,2013-06-21 16:22:00,
2013-06-21 11:37:00,73.6,64.0,29.99,SE,135,7.3,-999.0,72,-99.99,,,0.00,Acu-Link.com,2013-06-21 16:37:00,
2013-06-21 11:52:00,73.6,64.4,29.99,SSE,157,4.7,-999.0,73,-99.99,,,0.00,Acu-Link.com,2013-06-21 16:52:00,
2013-06-21 12:23:00,73.9,65.1,29.99,NNW,337,7.3,-999.0,74,-99.99,,,0.00,Acu-Link.com,2013-06-21 17:23:00,
2013-06-21 12:38:00,74.7,66.2,29.99,East,90,6.8,-999.0,75,-99.99,,,0.00,Acu-Link.com,2013-06-21 17:38:00,
2013-06-21 12:53:00,75.6,66.7,29.99,East,90,4.7,-999.0,74,-99.99,,,0.00,Acu-Link.com,2013-06-21 17:53:00,
2013-06-21 13:08:00,76.6,66.5,29.99,ESE,112,4.2,-999.0,71,-99.99,,,0.00,Acu-Link.com,2013-06-21 18:08:00,
2013-06-21 13:23:00,79.2,67.7,29.98,East,90,5.8,-999.0,68,-99.99,,,0.00,Acu-Link.com,2013-06-21 18:23:00,
2013-06-21 13:39:00,79.2,67.7,29.98,ENE,67,7.3,-999.0,68,-99.99,,,0.00,Acu-Link.com,2013-06-21 18:39:00,
2013-06-21 13:54:00,81.1,69.1,29.98,NNW,337,4.7,-999.0,67,-99.99,,,0.00,Acu-Link.com,2013-06-21 18:54:00,
2013-06-21 14:09:00,81.0,69.0,29.97,ENE,67,8.3,-999.0,67,-99.99,,,0.00,Acu-Link.com,2013-06-21 19:09:00,
2013-06-21 14:24:00,79.2,68.6,29.97,SE,135,7.3,-999.0,70,-99.99,,,0.00,Acu-Link.com,2013-06-21 19:24:00,
2013-06-21 14:39:00,80.2,69.9,29.94,ESE,112,10.4,-999.0,71,-99.99,,,0.00,Acu-Link.com,2013-06-21 19:39:00,
2013-06-21 14:55:00,81.7,70.9,29.91,West,270,9.9,-999.0,70,-99.99,,,0.00,Acu-Link.com,2013-06-21 19:55:00,
2013-06-21 15:10:00,81.7,71.4,29.87,East,90,10.9,-999.0,71,-99.99,,,0.00,Acu-Link.com,2013-06-21 20:10:00,
2013-06-21 15:25:00,81.7,71.4,29.88,ESE,112,4.2,-999.0,71,-99.99,,,0.00,Acu-Link.com,2013-06-21 20:25:00,
2013-06-21 15:40:00,81.7,71.8,29.87,ESE,112,3.2,-999.0,72,-99.99,,,0.00,Acu-Link.com,2013-06-21 20:40:00,
2013-06-21 15:56:00,81.9,71.6,29.88,NE,45,6.3,-999.0,71,-99.99,,,0.00,Acu-Link.com,2013-06-21 20:56:00,
2013-06-21 16:11:00,82.4,72.4,29.88,SE,135,4.7,-999.0,72,-99.99,,,0.00,Acu-Link.com,2013-06-21 21:11:00,
2013-06-21 16:26:00,83.1,72.3,29.87,SSE,157,5.8,-999.0,70,-99.99,,,0.00,Acu-Link.com,2013-06-21 21:26:00,
2013-06-21 16:56:00,87.8,74.1,29.87,WSW,247,6.3,-999.0,64,-99.99,,,0.00,Acu-Link.com,2013-06-21 21:56:00,
2013-06-21 17:12:00,86.9,74.6,29.87,South,180,2.7,-999.0,67,-99.99,,,0.00,Acu-Link.com,2013-06-21 22:12:00,
2013-06-21 17:27:00,87.4,75.1,29.87,SSE,157,6.3,-999.0,67,-99.99,,,0.00,Acu-Link.com,2013-06-21 22:27:00,
2013-06-21 17:42:00,88.0,75.6,29.87,SSE,157,10.4,-999.0,67,-99.99,,,0.00,Acu-Link.com,2013-06-21 22:42:00,
2013-06-21 17:57:00,90.3,76.0,29.87,SW,225,3.2,-999.0,63,-99.99,,,0.00,Acu-Link.com,2013-06-21 22:57:00,
2013-06-21 18:12:00,90.7,74.4,29.87,ESE,112,9.9,-999.0,59,-99.99,,,0.00,Acu-Link.com,2013-06-21 23:12:00,
2013-06-21 18:28:00,90.3,74.0,29.88,NNE,22,3.2,-999.0,59,-99.99,,,0.00,Acu-Link.com,2013-06-21 23:28:00,
2013-06-21 18:43:00,90.3,74.0,29.88,ESE,112,8.3,-999.0,59,-99.99,,,0.00,Acu-Link.com,2013-06-21 23:43:00,
2013-06-21 18:58:00,90.0,73.7,29.88,WSW,247,6.3,-999.0,59,-99.99,,,0.00,Acu-Link.com,2013-06-21 23:58:00,
2013-06-21 19:13:00,89.6,73.8,29.88,SSE,157,5.3,-999.0,60,-99.99,,,0.00,Acu-Link.com,2013-06-22 00:13:00,
2013-06-21 19:28:00,88.7,74.0,29.88,West,270,3.7,-999.0,62,-99.99,,,0.00,Acu-Link.com,2013-06-22 00:28:00,
2013-06-21 19:44:00,88.2,74.0,29.88,ESE,112,3.2,-999.0,63,-99.99,,,0.00,Acu-Link.com,2013-06-22 00:44:00,
2013-06-21 19:59:00,87.1,73.9,29.89,ESE,112,3.7,-999.0,65,-99.99,,,0.00,Acu-Link.com,2013-06-22 00:59:00,
2013-06-21 20:14:00,86.2,73.5,29.89,ESE,112,2.2,-999.0,66,-99.99,,,0.00,Acu-Link.com,2013-06-22 01:14:00,
2013-06-21 20:29:00,85.5,73.7,29.90,ESE,112,2.7,-999.0,68,-99.99,,,0.00,Acu-Link.com,2013-06-22 01:29:00,
2013-06-21 20:45:00,84.7,73.4,29.89,ENE,67,3.2,-999.0,69,-99.99,,,0.00,Acu-Link.com,2013-06-22 01:45:00,
2013-06-21 21:00:00,84.0,73.6,29.89,SE,135,2.2,-999.0,71,-99.99,,,0.00,Acu-Link.com,2013-06-22 02:00:00,
2013-06-21 21:15:00,83.5,73.9,29.89,ESE,112,3.7,-999.0,73,-99.99,,,0.00,Acu-Link.com,2013-06-22 02:15:00,
2013-06-21 21:30:00,82.9,73.7,29.89,ESE,112,3.2,-999.0,74,-99.99,,,0.00,Acu-Link.com,2013-06-22 02:30:00,
2013-06-21 21:45:00,82.8,73.6,29.89,South,180,3.2,-999.0,74,-99.99,,,0.00,Acu-Link.com,2013-06-22 02:45:00,
2013-06-21 22:01:00,82.2,73.9,29.89,East,90,2.7,-999.0,76,-99.99,,,0.00,Acu-Link.com,2013-06-22 03:01:00,
2013-06-21 22:16:00,82.2,73.9,29.89,South,180,4.7,-999.0,76,-99.99,,,0.00,Acu-Link.com,2013-06-22 03:16:00,
2013-06-21 22:31:00,82.4,74.1,29.90,ESE,112,3.2,-999.0,76,-99.99,,,0.00,Acu-Link.com,2013-06-22 03:31:00,
2013-06-21 22:46:00,82.2,73.5,29.89,South,180,4.2,-999.0,75,-99.99,,,0.00,Acu-Link.com,2013-06-22 03:46:00,
2013-06-21 23:01:00,82.2,73.5,29.88,WSW,247,3.7,-999.0,75,-99.99,,,0.00,Acu-Link.com,2013-06-22 04:01:00,
2013-06-21 23:16:00,82.0,73.3,29.88,South,180,2.7,-999.0,75,-99.99,,,0.00,Acu-Link.com,2013-06-22 04:16:00,
2013-06-21 23:32:00,82.2,72.7,29.89,SW,225,3.7,-999.0,73,-99.99,,,0.00,Acu-Link.com,2013-06-22 04:32:00,
2013-06-21 23:47:00,82.4,71.6,29.88,East,90,5.8,-999.0,70,-99.99,,,0.00,Acu-Link.com,2013-06-22 04:47:00,